Weather History for Carbondale, IL

Change the Weather History Date:

Thursday, February 14, 2013

  Actual Average Record
Temperature  
Mean Temperature 48 °F -  
Max Temperature 60 °F 46 °F 77 °F (1921)
Min Temperature 36 °F 26 °F 5 °F (1982)
Degree Days  
Heating Degree Days 17    
Moisture  
Dew Point 32 °F    
Average Humidity 59    
Maximum Humidity 86    
Minimum Humidity 32    
Precipitation  
Precipitation 0.00 in - - ()
Sea Level Pressure  
Sea Level Pressure 29.95 in    
Wind  
Wind Speed 8 mph (WSW)    
Max Wind Speed 16 mph    
Max Gust Speed 29 mph    
Visibility 10 miles    
Events      
Averages and records for this station are not official NWS values.
T = Trace of Precipitation, MM = Missing Value Source: NWS Daily Summary

Daily Weather History Graph

Daily Weather History Graph

Search for Another Location

Airport:

Trip Planner

Search our weather history database for the weather conditions in past years. The results will help you decide how hot, cold, wet, or windy it might be!

Date:

Astronomy

Feb. 14, 2013 Rise Set
Actual Time 6:47 AM CST 5:35 PM CST
Civil Twilight 6:20 AM CST 6:02 PM CST
Nautical Twilight 5:49 AM CST 6:33 PM CST
Astronomical Twilight 5:19 AM CST 7:03 PM CST
Moon 8:55 AM CST (2/14) 10:31 PM CST (2/14)
Length of Visible Light 11h 41m
Length of Day
10h 47m
Waxing Crescent, 22% of the Moon is Illuminated
Feb 14
Waxing Crescent
Feb 17
First Quarter
Feb 25
Full
Mar 4
Last Quarter
Mar 11
New

Hourly Weather History & Observations

Time (CST) Temp. Windchill Dew Point Humidity Pressure Visibility Wind Dir Wind Speed Gust Speed Precip Events Conditions
12:52 AM 36.0 °F 30.3 °F 32.0 °F 86% 29.92 in 10.0 mi South 6.9 mph - N/A   Clear
1:52 AM 36.0 °F 31.1 °F 32.0 °F 86% 29.90 in 10.0 mi South 5.8 mph - N/A   Clear
2:52 AM 37.0 °F 31.6 °F 32.0 °F 82% 29.89 in 10.0 mi South 6.9 mph - N/A   Clear
3:52 AM 37.9 °F 32.7 °F 33.1 °F 83% 29.88 in 10.0 mi SSW 6.9 mph - N/A   Clear
4:52 AM 37.0 °F 30.4 °F 32.0 °F 82% 29.88 in 10.0 mi SSW 9.2 mph - N/A   Clear
5:52 AM 37.0 °F 29.8 °F 32.0 °F 82% 29.89 in 10.0 mi SSW 10.4 mph - N/A   Clear
6:52 AM 37.0 °F 29.8 °F 32.0 °F 82% 29.90 in 10.0 mi SSW 10.4 mph 28.8 mph N/A   Partly Cloudy
7:52 AM 39.0 °F 34.0 °F 33.1 °F 79% 29.91 in 10.0 mi South 6.9 mph - N/A   Clear
8:52 AM 45.0 °F 39.3 °F 33.1 °F 63% 29.94 in 10.0 mi WSW 11.5 mph - N/A   Clear
9:52 AM 48.9 °F - 33.1 °F 54% 29.94 in 10.0 mi WSW 10.4 mph - N/A   Clear
10:52 AM 52.0 °F - 34.0 °F 50% 29.95 in 10.0 mi WSW 11.5 mph - N/A   Clear
11:52 AM 55.0 °F - 33.1 °F 43% 29.94 in 10.0 mi West 10.4 mph 20.7 mph N/A   Clear
12:52 PM 60.1 °F - 35.1 °F 39% 29.93 in 10.0 mi WSW 16.1 mph 19.6 mph N/A   Overcast
1:52 PM 60.1 °F - 33.1 °F 36% 29.92 in 10.0 mi West 12.7 mph 20.7 mph N/A   Mostly Cloudy
2:52 PM 60.1 °F - 32.0 °F 35% 29.92 in 10.0 mi West 10.4 mph 19.6 mph N/A   Mostly Cloudy
3:52 PM 60.1 °F - 30.0 °F 32% 29.94 in 10.0 mi WNW 11.5 mph - N/A   Overcast
4:52 PM 57.0 °F - 30.0 °F 36% 29.95 in 10.0 mi NW 6.9 mph - N/A   Overcast
5:52 PM 54.0 °F - 28.9 °F 38% 29.98 in 10.0 mi NW 6.9 mph - N/A   Clear
6:52 PM 52.0 °F - 28.0 °F 40% 30.00 in 10.0 mi NW 5.8 mph - N/A   Clear
7:52 PM 50.0 °F - 28.0 °F 43% 30.02 in 10.0 mi Calm Calm - N/A   Clear
8:52 PM 46.0 °F 43.1 °F 30.9 °F 56% 30.04 in 10.0 mi NNW 5.8 mph - N/A   Clear
9:52 PM 46.0 °F 42.5 °F 32.0 °F 58% 30.06 in 10.0 mi NNW 6.9 mph - N/A   Clear
10:52 PM 45.0 °F - 33.1 °F 63% 30.06 in 10.0 mi Calm Calm - N/A   Mostly Cloudy
11:52 PM 45.0 °F - 32.0 °F 60% 30.05 in 10.0 mi Calm Calm - N/A   Mostly Cloudy